Monticello, AR

11:59 AM CDT on July 24, 2017 (GMT -0500)
Monticello Municipal-Ellis

Weather History for KLLQ - October, 2013

Change the Weather History Date:

Saturday, October 5, 2013

  Actual Average Record
Temperature  
Mean Temperature 78 °F -  
Max Temperature 88 °F 81 °F 94 °F (1986)
Min Temperature 69 °F 52 °F 32 °F (1987)
Cooling Degree Days 13    
Growing Degree Days 28 (Base 50)    
Moisture  
Dew Point 70 °F    
Average Humidity 86    
Maximum Humidity 96    
Minimum Humidity 59    
Precipitation  
Precipitation 2.05 in - - ()
Sea Level Pressure  
Sea Level Pressure 29.94 in    
Wind  
Wind Speed 5 mph (South)    
Max Wind Speed 25 mph    
Max Gust Speed 34 mph    
Visibility 8 miles    
Events Rain , Thunderstorm    
Averages and records for this station are not official NWS values.
T = Trace of Precipitation, MM = Missing Value Source: NWS Daily Summary

Daily Weather History Graph

Daily Weather History Graph

Search for Another Location

Airport or City:

Trip Planner

Search our weather history database for the weather conditions in past years. The results will help you decide how hot, cold, wet, or windy it might be!

Date:

Astronomy

Oct. 05, 2013 Rise Set
Actual Time 7:04 AM CDT 6:45 PM CDT
Civil Twilight 6:39 AM CDT 7:10 PM CDT
Nautical Twilight 6:10 AM CDT 7:39 PM CDT
Astronomical Twilight 5:41 AM CDT 8:08 PM CDT
Moon 7:40 AM CDT (10/5) 7:09 PM CDT (10/5)
Length of Visible Light 12h 30m
Length of Day
11h 41m
New Moon, 1% of the Moon is Illuminated
Oct 5
New Moon
Oct 11
First Quarter
Oct 18
Full
Oct 26
Last Quarter
Nov 3
New

Hourly Weather History & Observations

Time (CDT) Temp. Heat Index Dew Point Humidity Pressure Visibility Wind Dir Wind Speed Gust Speed Precip Events Conditions
12:53 AM 75.0 °F - 70.0 °F 84% 29.98 in 10.0 mi Calm Calm - N/A   Partly Cloudy
1:53 AM 73.9 °F - 70.0 °F 87% 29.99 in 10.0 mi Calm Calm - N/A   Clear
2:53 AM 72.0 °F - 70.0 °F 93% 29.99 in 10.0 mi Calm Calm - N/A   Clear
3:53 AM 71.1 °F - 69.1 °F 93% 29.98 in 10.0 mi SSE 3.5 mph - N/A   Clear
4:53 AM 72.0 °F - 69.1 °F 91% 29.97 in 10.0 mi SSE 5.8 mph - N/A   Clear
5:53 AM 71.1 °F - 69.1 °F 93% 29.98 in 10.0 mi SSE 4.6 mph - N/A   Clear
6:53 AM 71.1 °F - 69.1 °F 93% 29.98 in 10.0 mi SSE 4.6 mph - N/A   Clear
7:53 AM 72.0 °F - 69.1 °F 91% 29.98 in 10.0 mi SSE 5.8 mph - N/A   Clear
8:48 AM 73.4 °F - 69.8 °F 88% 30.00 in 10.0 mi SSE 5.8 mph - N/A   Partly Cloudy
8:53 AM 73.9 °F - 70.0 °F 87% 29.99 in 10.0 mi SSE 3.5 mph - N/A   Partly Cloudy
9:53 AM 79.0 °F - 72.0 °F 79% 30.00 in 10.0 mi South 10.4 mph - N/A   Clear
10:53 AM 84.0 °F 89.0 °F 71.1 °F 65% 29.99 in 10.0 mi South 6.9 mph - N/A   Partly Cloudy
11:43 AM 82.4 °F 86.3 °F 69.8 °F 66% 30.00 in 10.0 mi WSW 8.1 mph - N/A   Mostly Cloudy
11:53 AM 82.9 °F 87.5 °F 71.1 °F 67% 29.99 in 10.0 mi SW 6.9 mph - N/A   Mostly Cloudy
12:53 PM 84.9 °F 90.1 °F 71.1 °F 63% 29.96 in 10.0 mi South 5.8 mph - N/A   Partly Cloudy
1:53 PM 86.0 °F 91.5 °F 71.1 °F 61% 29.94 in 10.0 mi Variable 4.6 mph - N/A   Mostly Cloudy
2:53 PM 87.1 °F 92.8 °F 71.1 °F 59% 29.91 in 10.0 mi South 4.6 mph - N/A   Scattered Clouds
3:53 PM 86.0 °F 90.7 °F 70.0 °F 59% 29.89 in 10.0 mi South 8.1 mph - N/A   Scattered Clouds
4:53 PM 82.9 °F 87.0 °F 70.0 °F 65% 29.87 in 10.0 mi Calm Calm - N/A   Mostly Cloudy
5:02 PM 82.4 °F 87.2 °F 71.6 °F 70% 29.88 in 10.0 mi SW 4.6 mph - 0.00 in Rain , Thunderstorm Light Thunderstorms and Rain
5:32 PM 73.4 °F - 69.8 °F 88% 29.93 in 2.5 mi SSW 25.3 mph 34.5 mph 0.11 in Rain , Thunderstorm Heavy Thunderstorms and Rain
5:38 PM 73.4 °F - 71.6 °F 94% 29.93 in 0.8 mi SW 11.5 mph 34.5 mph 0.52 in Rain , Thunderstorm Heavy Thunderstorms and Rain
5:53 PM 73.0 °F - 70.0 °F 90% 29.90 in 1.2 mi South 8.1 mph - 1.00 in Rain , Thunderstorm Heavy Thunderstorms and Rain
5:56 PM 73.4 °F - 71.6 °F 94% 29.90 in 3.0 mi South 6.9 mph - 0.00 in Rain , Thunderstorm Thunderstorms and Rain
6:04 PM 73.4 °F - 69.8 °F 88% 29.89 in 4.0 mi South 5.8 mph - 0.02 in Rain , Thunderstorm Heavy Thunderstorms and Rain
6:37 PM 73.4 °F - 69.8 °F 88% 29.91 in 7.0 mi South 5.8 mph - 0.10 in Rain Light Rain
6:53 PM 73.0 °F - 70.0 °F 90% 29.92 in 8.0 mi South 5.8 mph - 0.12 in Rain Rain
7:18 PM 71.6 °F - 69.8 °F 94% 29.93 in 10.0 mi ESE 6.9 mph - 0.03 in Rain Light Rain
7:53 PM 72.0 °F - 70.0 °F 93% 29.91 in 10.0 mi Calm Calm - 0.03 in   Mostly Cloudy
8:36 PM 73.4 °F - 71.6 °F 94% 29.92 in 10.0 mi East 9.2 mph - N/A   Overcast
8:53 PM 73.0 °F - 70.0 °F 90% 29.92 in 10.0 mi ESE 5.8 mph - N/A   Overcast
9:22 PM 71.6 °F - 69.8 °F 94% 29.92 in 10.0 mi ESE 5.8 mph - N/A   Overcast
9:53 PM 72.0 °F - 69.1 °F 91% 29.91 in 10.0 mi East 3.5 mph - N/A   Mostly Cloudy
10:19 PM 71.6 °F - 69.8 °F 94% 29.93 in 2.0 mi SE 4.6 mph - 0.15 in Rain Heavy Rain
10:26 PM 71.6 °F - 69.8 °F 94% 29.92 in 1.2 mi SE 5.8 mph - 0.24 in Rain Heavy Rain
10:36 PM 71.6 °F - 69.8 °F 94% 29.92 in 2.0 mi ESE 4.6 mph - 0.37 in Rain Rain
10:44 PM 71.6 °F - 69.8 °F 94% 29.91 in 9.0 mi East 3.5 mph - 0.38 in Rain Light Rain
10:53 PM 71.1 °F - 70.0 °F 96% 29.90 in 8.0 mi Calm Calm - 0.40 in Rain , Thunderstorm Light Rain
11:02 PM 71.6 °F - 69.8 °F 94% 29.92 in 6.0 mi West 10.4 mph - 0.04 in Rain , Thunderstorm Heavy Rain
11:12 PM 71.6 °F - 69.8 °F 94% 29.92 in 2.5 mi WNW 6.9 mph - 0.14 in Rain Heavy Rain
11:20 PM 71.6 °F - 69.8 °F 94% 29.92 in 1.5 mi NW 10.4 mph 17.3 mph 0.27 in Rain , Thunderstorm Heavy Rain
11:31 PM 69.8 °F - 68.0 °F 94% 29.92 in 1.2 mi Variable 4.6 mph - 0.44 in Rain , Thunderstorm Heavy Thunderstorms and Rain
11:37 PM 69.8 °F - 68.0 °F 94% 29.91 in 2.0 mi Variable 3.5 mph - 0.49 in Rain , Thunderstorm Heavy Thunderstorms and Rain
11:53 PM 70.0 °F - 66.9 °F 90% 29.92 in 10.0 mi NW 4.6 mph - 0.50 in Rain , Thunderstorm Light Rain